Location: Barcelona
(41.3829°N, 2.1774°E)
Time: 03:03:11
(UTC+00:00)

ISS - Pass Details

Date: 26 February 2026
Orbit: 417 x 426 km, 51.6° (Epoch: 16 March)

Event Time Altitude Azimuth Distance (km) Brightness Sun altitude
Exits shadow 05:34:58 - 321° (NW) 1,648 -1.1 -11.2°
Reaches altitude 10° 05:35:25 10° 325° (NW) 1,500 -1.3 -11.1°
Maximum altitude 05:38:08 22° 19° (NNE) 958 -1.7 -10.6°
Drops below altitude 10° 05:40:51 10° 74° (ENE) 1,494 0.4 -10.1°
Sets 05:43:15 0° 90° (E) 2,355 2.4 -9.7°
